4XDAG LLHZ-LLHZ

Flight info

Callsign 4XDAG
Flight time 0h 23m
Altitude 0800
Route VFR
Aircraft P28R/L-SDE2E3FGHIJ1LORVWXY/LB1

Departure

Time 2026-04-22 18:15
Airport Herzliya Airport (LLHZ)

Arrival

Time 2026-04-22 18:39
Airport Herzliya Airport (LLHZ)
Time Latitude Longitude Altitude Speed Heading
2026-04-22 17:59 32.18050 34.83206 104 ft 0 kts 20°
2026-04-22 18:10 32.18057 34.83210 103 ft 6 kts 33°
2026-04-22 18:10 32.18048 34.83276 104 ft 13 kts 110°
2026-04-22 18:10 32.18010 34.83404 107 ft 9 kts 110°
2026-04-22 18:10 32.17991 34.83466 108 ft 6 kts 109°
2026-04-22 18:11 32.17974 34.83530 110 ft 11 kts 106°
2026-04-22 18:11 32.17941 34.83639 114 ft 16 kts 109°
2026-04-22 18:11 32.17909 34.83747 120 ft 9 kts 108°
2026-04-22 18:11 32.17887 34.83833 123 ft 11 kts 103°
2026-04-22 18:12 32.17884 34.83839 121 ft 0 kts 129°
2026-04-22 18:12 32.17881 34.83844 122 ft 0 kts 109°
2026-04-22 18:12 32.17880 34.83847 123 ft 0 kts 104°
2026-04-22 18:14 32.17880 34.83849 123 ft 2 kts 96°
2026-04-22 18:14 32.17913 34.83852 124 ft 0 kts 289°
2026-04-22 18:14 32.17920 34.83828 125 ft 18 kts 289°
2026-04-22 18:14 32.18026 34.83472 107 ft 71 kts 294°
2026-04-22 18:15 32.18219 34.82862 235 ft 80 kts 294°
2026-04-22 18:15 32.18636 34.82677 482 ft 62 kts
2026-04-22 18:15 32.19064 34.82731 639 ft 63 kts 355°
2026-04-22 18:15 32.19456 34.82903 820 ft 66 kts 36°
2026-04-22 18:16 32.19606 34.83516 812 ft 94 kts 82°
2026-04-22 18:16 32.19354 34.84301 833 ft 111 kts 117°
2026-04-22 18:16 32.18921 34.85089 823 ft 116 kts 123°
2026-04-22 18:16 32.18333 34.85586 890 ft 108 kts 161°
2026-04-22 18:17 32.17584 34.85487 733 ft 101 kts 210°
2026-04-22 18:17 32.17566 34.84891 475 ft 77 kts 308°
2026-04-22 18:17 32.17762 34.84313 264 ft 74 kts 300°
2026-04-22 18:17 32.17936 34.83761 124 ft 66 kts 297°
2026-04-22 18:18 32.18074 34.83299 113 ft 67 kts 291°
2026-04-22 18:18 32.18186 34.82952 217 ft 68 kts 300°
2026-04-22 18:18 32.18574 34.82722 366 ft 63 kts
2026-04-22 18:18 32.19138 34.82883 556 ft 65 kts 13°
2026-04-22 18:19 32.19415 34.82977 668 ft 69 kts
2026-04-22 18:19 32.19641 34.83422 781 ft 87 kts 103°
2026-04-22 18:19 32.19325 34.84112 814 ft 105 kts 111°
2026-04-22 18:19 32.18958 34.84911 909 ft 113 kts 112°
2026-04-22 18:20 32.18395 34.85442 747 ft 106 kts 169°
2026-04-22 18:20 32.17785 34.85253 598 ft 86 kts 232°
2026-04-22 18:20 32.17624 34.84665 378 ft 68 kts 309°
2026-04-22 18:20 32.17812 34.84157 232 ft 62 kts 300°
2026-04-22 18:21 32.17961 34.83669 116 ft 58 kts 289°
2026-04-22 18:21 32.18089 34.83261 109 ft 63 kts 292°
2026-04-22 18:21 32.18265 34.82778 266 ft 59 kts 311°
2026-04-22 18:21 32.18638 34.82640 366 ft 60 kts
2026-04-22 18:22 32.19032 34.82801 514 ft 59 kts 10°
2026-04-22 18:22 32.19435 34.82909 682 ft 61 kts 11°
2026-04-22 18:22 32.19823 34.83126 819 ft 64 kts 26°
2026-04-22 18:22 32.20198 34.83374 1035 ft 67 kts 19°
2026-04-22 18:23 32.20678 34.83626 1187 ft 83 kts 20°
2026-04-22 18:23 32.21244 34.83861 1307 ft 100 kts 19°
2026-04-22 18:23 32.21949 34.84288 1256 ft 121 kts 29°
2026-04-22 18:24 32.23510 34.85282 1285 ft 133 kts 25°
2026-04-22 18:24 32.24323 34.85767 1332 ft 135 kts 26°
2026-04-22 18:24 32.26035 34.86602 1458 ft 128 kts 22°
2026-04-22 18:25 32.26844 34.86929 1373 ft 111 kts 17°
2026-04-22 18:25 32.27503 34.87134 1361 ft 88 kts 13°
2026-04-22 18:25 32.28041 34.87227 1339 ft 70 kts 348°
2026-04-22 18:26 32.27720 34.86350 936 ft 100 kts 184°
2026-04-22 18:26 32.27060 34.86546 893 ft 106 kts 127°
2026-04-22 18:26 32.27294 34.87102 958 ft 98 kts
2026-04-22 18:26 32.27817 34.86871 962 ft 79 kts 352°
2026-04-22 18:27 32.28307 34.86780 1077 ft 65 kts 347°
2026-04-22 18:27 32.28757 34.86525 1034 ft 71 kts 327°
2026-04-22 18:27 32.28987 34.85935 852 ft 96 kts 268°
2026-04-22 18:27 32.28416 34.85720 1000 ft 105 kts 150°
2026-04-22 18:28 32.27775 34.85621 929 ft 98 kts 200°
2026-04-22 18:28 32.27428 34.85823 908 ft 73 kts 25°
2026-04-22 18:28 32.27930 34.85716 842 ft 79 kts 342°
2026-04-22 18:28 32.28421 34.85466 857 ft 76 kts 335°
2026-04-22 18:29 32.28860 34.85171 824 ft 70 kts 22°
2026-04-22 18:29 32.29294 34.85511 835 ft 75 kts 12°
2026-04-22 18:29 32.29789 34.85616 1128 ft 70 kts
2026-04-22 18:29 32.30193 34.85341 1202 ft 103 kts 274°
2026-04-22 18:30 32.29547 34.84940 1259 ft 115 kts 196°
2026-04-22 18:30 32.27938 34.84759 1422 ft 120 kts 173°
2026-04-22 18:30 32.27192 34.84479 1622 ft 114 kts 157°
2026-04-22 18:31 32.27340 34.85029 1533 ft 97 kts 39°
2026-04-22 18:31 32.27853 34.85121 1832 ft 63 kts
2026-04-22 18:31 32.28329 34.85184 1901 ft 75 kts 18°
2026-04-22 18:31 32.28174 34.85656 1839 ft 128 kts 198°
2026-04-22 18:32 32.27426 34.85893 1833 ft 105 kts 137°
2026-04-22 18:32 32.26790 34.86391 1687 ft 122 kts 144°
2026-04-22 18:32 32.26020 34.86986 1608 ft 132 kts 143°
2026-04-22 18:32 32.25207 34.87561 1252 ft 133 kts 148°
2026-04-22 18:33 32.24463 34.88013 1256 ft 106 kts 154°
2026-04-22 18:33 32.23822 34.88215 1440 ft 91 kts 158°
2026-04-22 18:33 32.23135 34.88239 1154 ft 119 kts 198°
2026-04-22 18:33 32.22339 34.88250 1239 ft 107 kts 172°
2026-04-22 18:34 32.21598 34.88185 1226 ft 111 kts 205°
2026-04-22 18:34 32.20992 34.87637 1168 ft 109 kts 224°
2026-04-22 18:34 32.20424 34.87031 1173 ft 110 kts 226°
2026-04-22 18:34 32.19893 34.86350 1096 ft 117 kts 232°
2026-04-22 18:35 32.19381 34.85638 1134 ft 113 kts 233°
2026-04-22 18:35 32.18863 34.84950 1235 ft 112 kts 229°
2026-04-22 18:35 32.18363 34.84193 1184 ft 117 kts 240°
2026-04-22 18:35 32.17945 34.83432 1168 ft 102 kts 244°
2026-04-22 18:36 32.18028 34.82724 1016 ft 95 kts 321°
2026-04-22 18:36 32.18678 34.82586 800 ft 94 kts 16°
2026-04-22 18:36 32.19210 34.82980 785 ft 93 kts 40°
2026-04-22 18:36 32.19277 34.83690 884 ft 93 kts 106°
2026-04-22 18:37 32.19076 34.84358 785 ft 83 kts 101°
2026-04-22 18:37 32.18879 34.85013 798 ft 86 kts 98°
2026-04-22 18:37 32.18598 34.85371 806 ft 92 kts 143°
2026-04-22 18:37 32.17777 34.85182 729 ft 95 kts 223°
2026-04-22 18:38 32.17671 34.84578 482 ft 72 kts 294°
2026-04-22 18:38 32.17858 34.84019 184 ft 70 kts 292°
2026-04-22 18:38 32.17999 34.83552 108 ft 50 kts 290°
2026-04-22 18:39 32.18115 34.83065 97 ft 10 kts 158°
2026-04-22 18:39 32.18112 34.83068 98 ft 0 kts 131°
2026-04-22 18:39 32.18094 34.83112 99 ft 4 kts 149°
2026-04-22 18:39 32.18078 34.83111 99 ft 0 kts 232°
2026-04-22 18:40 32.18085 34.83101 98 ft 2 kts 20°
2026-04-22 18:40 32.18088 34.83103 98 ft 0 kts 41°